• In Hungary
  • List of Countries
  • For 7 days
  • Water Temperature
  • Satellite Maps
  • Weather Map
  • News
  • Weather Widgets
  • user-avatar
    Login

    Hourly Weather Lowech

    Today, 16 August, Thursday

    Time Temperature Precipitation Wind Pressure Humidity
    00:00 +22°C° 0 mm 1 mps 735 mmHg 53%
    01:00 +21°C° 0 mm 1 mps 735 mmHg 55%
    02:00 +21°C° 0 mm 1 mps 735 mmHg 55%
    03:00 +21°C° 0 mm 1 mps 735 mmHg 56%
    04:00 +20°C° 0 mm 1 mps 735 mmHg 58%
    05:00 +20°C° 0 mm 1 mps 735 mmHg 59%
    06:00 +21°C° 0 mm 1 mps 736 mmHg 56%
    07:00 +23°C° 0 mm 1 mps 736 mmHg 53%
    08:00 +24°C° 0 mm 1 mps 736 mmHg 48%
    09:00 +26°C° 0 mm 2 mps 736 mmHg 44%
    10:00 +28°C° 0 mm 2 mps 736 mmHg 40%
    11:00 +30°C° 0 mm 2 mps 736 mmHg 35%
    12:00 +30°C° 0 mm 3 mps 736 mmHg 33%
    13:00 +31°C° 0 mm 3 mps 735 mmHg 31%
    14:00 +33°C° 0 mm 3 mps 735 mmHg 29%
    15:00 +33°C° 0 mm 3 mps 735 mmHg 30%
    16:00 +33°C° 0 mm 3 mps 735 mmHg 31%
    17:00 +32°C° 0 mm 2 mps 734 mmHg 32%
    18:00 +30°C° 0 mm 2 mps 734 mmHg 36%
    19:00 +28°C° 0 mm 1 mps 734 mmHg 40%
    20:00 +25°C° 0 mm 1 mps 734 mmHg 44%
    21:00 +25°C° 0 mm 1 mps 735 mmHg 46%
    22:00 +25°C° 0 mm 1 mps 735 mmHg 47%
    23:00 +24°C° 0 mm 1 mps 735 mmHg 48%

    Tomorrow, 17 August, Friday

    Time Temperature Precipitation Wind Pressure Humidity
    00:00 +23°C° 0 mm 1 mps 735 mmHg 50%
    01:00 +23°C° 0 mm 1 mps 735 mmHg 52%
    02:00 +22°C° 0 mm 1 mps 735 mmHg 55%
    03:00 +22°C° 0 mm 1 mps 735 mmHg 56%
    04:00 +21°C° 0 mm 1 mps 735 mmHg 58%
    05:00 +20°C° 0 mm 1 mps 735 mmHg 59%
    06:00 +22°C° 0 mm 1 mps 735 mmHg 55%
    07:00 +24°C° 0 mm 1 mps 735 mmHg 51%
    08:00 +25°C° 0 mm 1 mps 736 mmHg 47%
    09:00 +27°C° 0 mm 1 mps 736 mmHg 43%
    10:00 +29°C° 0 mm 1 mps 736 mmHg 40%
    11:00 +30°C° 0 mm 2 mps 736 mmHg 36%
    12:00 +31°C° 0 mm 2 mps 735 mmHg 34%
    13:00 +32°C° 0 mm 2 mps 735 mmHg 32%
    14:00 +34°C° 0 mm 3 mps 735 mmHg 30%
    15:00 +34°C° 0 mm 3 mps 735 mmHg 31%
    16:00 +33°C° 0 mm 3 mps 734 mmHg 32%
    17:00 +32°C° 0 mm 2 mps 734 mmHg 33%
    18:00 +30°C° 0 mm 2 mps 734 mmHg 37%
    19:00 +28°C° 0 mm 1 mps 734 mmHg 41%
    20:00 +26°C° 0 mm 1 mps 735 mmHg 45%
    21:00 +25°C° 0 mm 1 mps 735 mmHg 46%
    22:00 +25°C° 0 mm 1 mps 735 mmHg 47%
    23:00 +24°C° 0 mm 1 mps 735 mmHg 49%

    Day after tomorrow, 18 August, Saturday

    Time Temperature Precipitation Wind Pressure Humidity
    00:00 +24°C° 0 mm 1 mps 735 mmHg 50%
    01:00 +23°C° 0 mm 1 mps 736 mmHg 52%
    02:00 +23°C° 0 mm 1 mps 736 mmHg 54%
    03:00 +22°C° 0 mm 1 mps 736 mmHg 55%
    04:00 +21°C° 0 mm 1 mps 736 mmHg 56%
    05:00 +19°C° 0 mm 0 mps 736 mmHg 57%
    06:00 +23°C° 0 mm 1 mps 736 mmHg 54%
    07:00 +24°C° 0 mm 1 mps 736 mmHg 50%
    08:00 +26°C° 0 mm 1 mps 736 mmHg 46%
    09:00 +28°C° 0 mm 1 mps 737 mmHg 42%
    10:00 +30°C° 0 mm 2 mps 737 mmHg 38%
    11:00 +31°C° 0 mm 2 mps 737 mmHg 34%
    12:00 +33°C° 0 mm 3 mps 736 mmHg 33%
    13:00 +34°C° 0 mm 3 mps 736 mmHg 31%
    14:00 +34°C° 0 mm 3 mps 736 mmHg 29%
    15:00 +34°C° 0 mm 3 mps 736 mmHg 31%
    16:00 +33°C° 0 mm 3 mps 735 mmHg 33%
    17:00 +33°C° 0 mm 3 mps 735 mmHg 34%
    18:00 +30°C° 0 mm 2 mps 736 mmHg 38%
    19:00 +28°C° 0 mm 2 mps 736 mmHg 42%
    20:00 +26°C° 0 mm 1 mps 736 mmHg 46%
    21:00 +25°C° 0 mm 1 mps 736 mmHg 47%
    22:00 +25°C° 0 mm 1 mps 737 mmHg 48%
    23:00 +24°C° 0 mm 1 mps 737 mmHg 49%

    19 August, Sunday

    Time Temperature Precipitation Wind Pressure Humidity
    00:00 +24°C° 0 mm 1 mps 737 mmHg 50%
    01:00 +23°C° 0 mm 1 mps 737 mmHg 51%
    02:00 +23°C° 0 mm 1 mps 737 mmHg 52%
    03:00 +22°C° 0 mm 1 mps 737 mmHg 53%
    04:00 +22°C° 0 mm 1 mps 737 mmHg 54%
    05:00 +22°C° 0 mm 1 mps 737 mmHg 55%
    06:00 +23°C° 0 mm 1 mps 737 mmHg 52%
    07:00 +25°C° 0 mm 1 mps 737 mmHg 48%
    08:00 +27°C° 0 mm 1 mps 737 mmHg 45%
    09:00 +28°C° 0 mm 1 mps 737 mmHg 41%
    10:00 +30°C° 0 mm 2 mps 737 mmHg 37%
    11:00 +32°C° 0 mm 2 mps 737 mmHg 33%
    12:00 +32°C° 0 mm 2 mps 737 mmHg 32%
    13:00 +34°C° 0 mm 2 mps 736 mmHg 31%
    14:00 +34°C° 0 mm 2 mps 736 mmHg 30%
    15:00 +34°C° 0 mm 2 mps 736 mmHg 31%
    16:00 +34°C° 0 mm 2 mps 735 mmHg 31%
    17:00 +34°C° 0 mm 3 mps 735 mmHg 32%
    18:00 +31°C° 0.1 mm 2 mps 735 mmHg 37%
    19:00 +29°C° 0.1 mm 1 mps 735 mmHg 42%
    20:00 +26°C° 0.1 mm 1 mps 736 mmHg 47%
    21:00 +26°C° 0.2 mm 1 mps 736 mmHg 49%
    22:00 +25°C° 0.2 mm 1 mps 736 mmHg 50%
    23:00 +24°C° 0.2 mm 1 mps 736 mmHg 52%

    20 August, Monday

    Time Temperature Precipitation Wind Pressure Humidity
    00:00 +24°C° 0.1 mm 1 mps 736 mmHg 54%
    01:00 +23°C° 0.1 mm 1 mps 736 mmHg 56%
    02:00 +23°C° 0.1 mm 1 mps 736 mmHg 57%
    03:00 +22°C° 0.3 mm 1 mps 736 mmHg 59%
    04:00 +22°C° 0.3 mm 1 mps 736 mmHg 61%
    05:00 +21°C° 0.3 mm 1 mps 736 mmHg 63%
    06:00 +23°C° 0.2 mm 1 mps 736 mmHg 60%
    07:00 +24°C° 0.2 mm 1 mps 736 mmHg 57%
    08:00 +26°C° 0.2 mm 1 mps 737 mmHg 54%
    09:00 +27°C° 0 mm 1 mps 737 mmHg 49%
    10:00 +29°C° 0 mm 2 mps 737 mmHg 44%
    11:00 +31°C° 0 mm 2 mps 737 mmHg 39%
    12:00 +32°C° 0 mm 2 mps 737 mmHg 37%
    13:00 +32°C° 0 mm 2 mps 736 mmHg 35%
    14:00 +34°C° 0 mm 2 mps 736 mmHg 33%
    15:00 +34°C° 0 mm 2 mps 736 mmHg 34%
    16:00 +32°C° 0 mm 2 mps 736 mmHg 35%
    17:00 +32°C° 0 mm 2 mps 736 mmHg 36%
    18:00 +30°C° 0 mm 2 mps 736 mmHg 41%
    19:00 +28°C° 0 mm 2 mps 736 mmHg 46%
    20:00 +26°C° 0 mm 2 mps 736 mmHg 50%
    21:00 +26°C° 0 mm 2 mps 736 mmHg 53%
    22:00 +25°C° 0 mm 2 mps 736 mmHg 55%
    23:00 +24°C° 0 mm 2 mps 737 mmHg 57%

    21 August, Tuesday

    Time Temperature Precipitation Wind Pressure Humidity
    00:00 +24°C° 0 mm 1 mps 737 mmHg 58%
    01:00 +23°C° 0 mm 1 mps 737 mmHg 60%
    02:00 +23°C° 0 mm 1 mps 737 mmHg 62%
    03:00 +22°C° 0 mm 1 mps 737 mmHg 63%
    04:00 +22°C° 0 mm 1 mps 737 mmHg 64%
    05:00 +21°C° 0 mm 1 mps 737 mmHg 65%
    06:00 +23°C° 0.1 mm 1 mps 737 mmHg 61%
    07:00 +25°C° 0.1 mm 1 mps 738 mmHg 56%
    08:00 +24°C° 0.1 mm 0 mps 738 mmHg 52%
    09:00 +28°C° 0 mm 1 mps 738 mmHg 47%
    10:00 +29°C° 0 mm 2 mps 738 mmHg 43%
    11:00 +31°C° 0 mm 2 mps 738 mmHg 39%
    12:00 +32°C° 0 mm 2 mps 737 mmHg 37%
    13:00 +33°C° 0 mm 3 mps 737 mmHg 35%
    14:00 +34°C° 0 mm 3 mps 737 mmHg 34%
    15:00 +34°C° 0 mm 3 mps 736 mmHg 34%
    16:00 +34°C° 0 mm 3 mps 736 mmHg 34%
    17:00 +32°C° 0 mm 2 mps 736 mmHg 35%
    18:00 +30°C° 0 mm 2 mps 736 mmHg 39%
    19:00 +28°C° 0 mm 2 mps 736 mmHg 43%
    20:00 +26°C° 0 mm 1 mps 736 mmHg 48%
    21:00 +25°C° 0 mm 2 mps 736 mmHg 50%
    22:00 +24°C° 0 mm 2 mps 737 mmHg 51%
    23:00 +23°C° 0 mm 2 mps 737 mmHg 53%
    Show more